Dewpoint
44 44 44 44 44 45 43 38 28 41 44 32 33 29 31 31 25 22 19 23 22 24 26 19 24 24 24 27 28 23 31 33 26 23 25 28 27 28 31 32 27 30 27 23
44 44 44 45 45 44 41 34 33 42 42 24 28 30 27 29 28 23 21 19 22 28 32 28 29 28 29 26 27 26 31 32 23 19 21 27 28 30 32 34 33 29 27 25
43 43 43 44 45 45 43 36 28 34 37 34 28 28 28 29 30 29 27 20 21 24 27 30 31 32 33 32 29 40 32 30 21 18 19 28 28 30 32 30 30 27 26 25
41 42 42 43 44 45 43 35 30 32 26 31 30 27 29 28 27 26 24 23 19 19 26 29 30 31 30 31 40 34 34 25 26 21 21 21 18 23 30 29 28 27 25 26
40 41 42 42 45 45 41 33 32 36 31 30 32 31 29 29 27 26 21 23 20 21 23 30 29 28 31 32 32 33 32 28 28 26 22 23 20 21 28 28 26 25 25 26
38 39 41 44 44 45 39 39 39 35 29 29 30 30 30 28 32 32 26 23 22 20 21 25 30 34 33 33 33 34 32 32 28 20 24 22 23 25 25 26 27 26 25 29
37 39 42 42 43 44 41 39 38 33 26 28 26 25 29 34 33 30 29 25 24 24 25 27 35 35 37 37 38 36 33 32 30 28 27 23 23 28 23 24 28 29 30 33
38 39 42 41 43 44 42 41 37 34 28 27 28 32 32 35 34 36 33 33 35 35 28 32 30 32 32 33 33 37 35 32 32 30 24 23 27 30 28 25 28 32 34 38
38 39 41 42 43 44 43 41 42 38 31 27 29 30 31 31 34 34 37 37 43 41 35 29 26 22 25 29 28 34 35 36 33 29 25 21 27 30 31 29 25 38 38 39
39 38 39 41 44 44 44 42 43 39 33 35 34 31 34 37 35 35 36 35 37 42 36 30 25 23 28 26 28 30 32 33 34 31 28 28 29 33 33 25 28 40 38 39
39 38 38 40 41 45 44 41 44 39 34 36 37 37 36 37 36 33 38 38 38 37 34 32 30 28 27 28 29 31 31 32 32 31 31 29 36 35 29 34 40 39 39 39
39 37 37 40 42 44 44 39 44 44 37 36 43 42 43 41 38 35 36 38 37 37 36 36 34 30 31 28 25 28 31 35 33 33 32 33 32 38 40 40 39 39 38 36
38 37 36 40 42 44 44 41 43 42 35 36 38 38 43 44 43 43 34 36 40 39 39 36 34 30 29 28 27 27 26 36 34 34 24 27 31 35 37 39 38 37 36 30
37 37 36 40 43 44 44 42 43 40 37 33 35 39 39 41 42 41 42 38 40 42 40 37 33 29 30 28 30 29 28 32 30 24 23 27 25 28 30 30 29 27 26 25
37 35 37 41 42 44 43 44 43 42 38 32 31 37 39 38 39 39 41 42 38 36 35 35 31 28 28 28 31 28 26 33 33 30 28 28 23 25 27 26 27 28 28 31
36 35 37 41 42 43 42 34 43 44 42 33 28 36 37 38 38 37 36 36 36 35 33 33 34 31 30 27 23 24 25 30 32 35 28 26 26 30 29 29 30 32 33 34
35 37 39 40 41 42 35 36 39 44 42 34 25 26 36 38 36 34 34 33 32 34 33 32 33 32 31 25 22 22 23 25 30 31 31 30 30 31 34 33 33 35 32 32
36 38 40 41 43 43 38 41 42 43 40 31 25 24 31 36 34 32 33 31 32 30 30 31 30 32 31 26 23 21 23 26 27 26 28 31 32 32 31 30 28 25 26 28
38 41 42 41 39 35 37 42 43 42 37 29 25 22 23 33 33 31 32 32 28 30 29 26 25 20 19 26 25 22 23 26 30 31 30 30 28 27 27 25 25 25 25 27
39 40 36 32 36 42 43 39 35 35 35 30 23 25 24 29 29 28 28 30 27 25 25 27 26 24 26 30 26 25 27 32 30 29 27 27 25 25 25 24 25 25 26 27
38 33 33 39 43 38 34 31 32 31 24 27 25 26 26 30 25 28 28 27 26 22 23 23 22 21 26 31 30 30 29 29 31 30 30 27 27 26 27 27 27 28 29 28
37 37 41 39 35 30 27 25 25 24 17 27 26 27 28 29 29 24 26 22 24 17 24 24 20 24 27 27 32 33 33 30 30 31 30 30 30 29 28 28 29 30 31 32
40 36 33 32 26 20 20 17 19 21 23 26 25 23 24 24 25 24 21 20 20 21 20 18 23 26 26 27 32 33 34 33 30 29 30 30 29 30 30 29 30 31 31 30
32 30 25 26 20 20 15 18 18 23 27 25 24 24 25 24 23 23 16 21 21 17 9 12 25 25 24 27 31 31 32 33 33 33 32 32 32 31 33 34 32 31 30 30
31 27 20 22 21 23 23 25 26 27 27 25 25 25 25 24 22 23 20 17 13 11 12 23 25 24 26 27 30 30 30 31 30 31 32 33 33 33 33 33 32 31 32 32
32 30 23 25 23 24 25 26 26 27 26 26 26 23 21 20 21 16 12 8 7 15 23 24 23 24 26 26 29 30 30 30 30 31 31 32 30 29 32 33 32 31 31 31
31 28 29 27 25 25 25 26 26 28 24 23 23 17 17 22 19 14 20 17 19 21 22 22 25 26 26 27 30 30 28 28 28 29 32 32 32 31 31 30 31 32 32 31
Lifted_Index
11 10 10 10 10 10 10 11 11 9 8 7 6 6 7 7 7 7 6 5 5 4 3 3 2 3 3 4 4 4 4 4 3 3 4 4 3 3 2 2 2 3 3 3
10 10 10 9 9 9 9 10 9 8 6 5 4 4 5 5 6 6 6 6 5 4 3 2 2 2 3 3 4 4 4 3 3 3 3 4 4 3 3 2 2 3 3 3
10 10 9 8 8 7 7 7 7 5 4 3 3 2 2 3 4 5 5 6 5 4 3 2 1 2 2 2 3 3 3 3 3 3 3 4 4 4 3 3 2 3 3 3
10 9 9 8 6 5 5 5 5 4 3 2 2 1 1 1 2 3 4 5 5 4 3 1 1 1 1 1 2 2 3 3 3 3 3 3 3 3 3 3 3 3 3 3
9 9 7 6 5 3 3 3 3 3 3 2 2 1 1 0 1 2 2 3 4 4 3 1 0 0 0 0 0 1 2 3 3 3 4 4 3 3 3 3 3 3 3 3
9 8 6 5 3 2 2 2 3 3 3 2 2 1 1 1 1 1 1 2 3 3 2 1 1 1 0 -0 -0 0 1 2 2 2 3 3 3 4 4 4 4 4 4 3
7 6 5 3 2 1 1 2 2 2 3 3 2 2 2 1 1 1 1 1 2 2 2 2 2 1 1 -0 -0 -1 -0 1 1 2 2 2 3 4 4 4 4 4 4 3
5 5 4 3 1 1 1 1 2 2 3 3 3 2 2 2 2 1 1 0 1 1 1 1 1 1 0 -0 -0 -1 -0 0 0 1 1 2 3 3 3 3 3 3 3 2
4 4 3 2 1 0 0 1 1 2 3 3 3 2 2 2 2 2 1 0 -0 -0 0 1 1 1 0 -0 -0 -0 -0 -0 -0 0 1 1 2 2 2 2 2 2 2 2
3 3 3 2 1 0 0 1 2 2 3 3 2 2 2 2 2 2 1 0 -0 -0 -0 -0 1 1 0 0 0 0 -0 -0 -0 -0 0 1 2 2 2 2 2 2 2 1
3 3 3 2 1 0 0 1 2 2 3 3 2 2 2 2 2 1 1 0 -0 -0 -1 -1 -0 0 0 0 0 0 -0 -0 -1 -0 -0 0 1 1 1 1 2 1 1 1
2 3 3 2 1 0 0 1 2 2 3 3 3 2 2 2 2 2 1 1 0 0 -0 -0 -0 -0 0 0 1 0 0 -0 -0 -0 -0 0 0 1 1 1 1 1 1 1
3 3 3 2 1 1 1 2 2 2 3 3 3 3 3 3 3 3 2 2 2 1 0 -0 -0 -0 0 0 1 1 0 -0 -0 -0 0 0 0 0 1 1 1 1 1 1
3 3 3 3 2 1 1 2 2 3 3 3 3 3 3 3 3 3 2 3 3 2 1 0 0 0 0 0 1 1 0 0 0 0 0 0 1 1 1 1 2 2 2 2
3 3 3 3 2 2 2 2 2 3 3 3 3 3 3 3 3 2 2 3 3 2 1 1 1 1 1 0 0 0 1 1 1 1 0 1 1 2 2 2 2 2 2 3
4 4 3 3 2 2 2 2 3 3 3 3 3 3 3 3 3 3 3 3 2 2 2 1 2 2 1 1 0 1 1 1 1 1 1 1 2 2 2 2 3 3 4 4
4 3 3 3 3 2 2 3 3 3 4 3 3 2 3 3 3 3 4 3 3 2 2 3 3 3 2 1 1 1 2 1 1 2 2 2 2 2 3 4 5 5 6 6
3 3 3 3 3 3 3 3 4 4 4 3 2 2 2 3 3 4 4 4 4 3 3 4 4 3 3 2 2 3 3 3 3 3 3 2 3 3 5 6 6 7 7 8
3 3 3 2 2 3 3 4 4 4 3 3 2 2 2 2 3 3 4 5 5 5 5 5 5 4 4 4 5 5 5 5 5 5 5 5 5 6 6 7 7 8 8 9
3 3 3 2 3 3 3 3 3 3 3 3 3 3 3 3 3 4 5 6 5 5 6 6 6 6 6 6 7 7 7 7 7 7 7 7 7 7 8 8 8 9 9 9
3 3 3 3 3 3 3 3 3 3 3 3 4 4 4 4 4 4 5 6 5 5 6 6 6 7 7 7 7 8 8 8 7 7 8 8 8 8 8 9 9 9 9 10
3 3 2 2 3 3 3 3 3 3 3 3 4 4 4 4 5 5 5 5 5 5 6 6 6 7 7 8 8 8 8 7 7 7 8 8 8 8 8 9 9 9 10 10
2 2 2 2 2 3 3 3 3 3 3 3 3 4 4 4 5 5 5 4 4 5 5 5 5 7 7 8 8 8 7 7 7 8 8 8 8 8 8 8 9 9 10 10
1 1 2 2 3 3 3 4 3 3 3 3 4 4 4 4 4 4 4 3 3 3 3 4 5 6 7 7 7 7 7 7 7 7 7 7 7 7 7 7 8 8 9 9
1 1 2 3 3 3 4 4 4 4 4 4 4 4 4 4 3 3 3 2 2 2 3 4 5 6 6 6 6 6 6 7 7 7 7 7 7 7 7 6 7 7 7 7
1 2 2 3 3 3 4 4 4 4 4 4 4 4 3 3 3 2 2 2 2 3 4 5 5 5 5 5 5 5 5 6 6 7 7 6 6 6 6 6 6 7 7 7
1 2 3 3 3 4 4 4 4 4 4 4 4 3 3 3 2 2 2 2 3 4 4 5 5 5 5 5 4 4 5 6 6 6 6 6 6 6 7 7 7 7 7 7